Regional Weather Roundup
Issued by NWS

Home | Current Version | Previous Version | Graphics & Text | Print | Product List | Glossary On
Versions: 1 2 3 4 5 6 7 8 9 10 11 12 13 14 15 16 17 18 19 20 21 22 23 24 25 26 27 28 29 30 31 32 33 34 35 36 37 38 39 40 41 42 43 44 45 46 47 48 49 50
000
ASUS43 KBIS 021720
RWRND

NORTH DAKOTA REGIONAL WEATHER ROUNDUP
NATIONAL WEATHER SERVICE BISMARCK ND
1100 AM CST MON MAR 02 2015

NOTE: "FAIR" INDICATES FEW OR NO CLOUDS BELOW 12,000 FEET WITH NO
SIGNIFICANT WEATHER AND/OR OBSTRUCTIONS TO VISIBILITY.


NDZ001>003-009>011-017-021800-
NORTHWEST NORTH DAKOTA

CITY           SKY/WX    TMP DP  RH WIND       PRES   REMARKS
WILLISTON      SUNNY     27  12  53 S17G24    29.84F WCI  14
MINOT          SUNNY     20  11  68 SE21      29.95F WCI   4
MINOT AFB      SUNNY     20  14  78 S21       29.94F WCI   4
$$

NDZ018>021-031>035-040>046-021800-
SOUTHWEST NORTH DAKOTA

CITY           SKY/WX    TMP DP  RH WIND       PRES   REMARKS
BISMARCK       SUNNY     25  14  63 S17       30.03F WCI  12
DICKINSON      SUNNY     27  13  55 S24G31    29.85F WCI  12
GARRISON         N/A     22  14  71 S16G23    29.95F WCI   8
HETTINGER ARPT SUNNY     27  12  53 S16       29.89F WCI  15
$$

NDZ004>008-012>016-024-026-027-054-021800-
NORTHEAST NORTH DAKOTA

CITY           SKY/WX    TMP DP  RH WIND       PRES   REMARKS
GRAND FORKS    PTSUNNY   17   8  67 S13       30.24F WCI   4
GRND FRKS AFB  SUNNY     25  10  52 S16       30.22F WCI  12
DEVILS LAKE    SUNNY     21  12  68 S16G26    30.09F WCI   7
$$

NDZ022-023-025-028>030-036>039-047>053-021800-
SOUTHEAST NORTH DAKOTA

CITY           SKY/WX    TMP DP  RH WIND       PRES   REMARKS
FARGO          SUNNY     23  10  57 S15       30.30F WCI  10
JAMESTOWN      SUNNY     21  12  68 S23G32    30.15F WCI   5
$$




USA.gov is the U.S. government's official web portal to all federal, state and local government web resources and services.